Location: Fours
(44.3167°N, 6.7000°E)
Time: 11:09:22
(UTC+00:00)

ONEWEB-0412 - Visible Passes

Search period start: 17 August 2022 00:00
Search period end: 27 August 2022 00:00
Orbit: 586 x 592 km, 87.2° (Epoch: 17 August)

Date Brightness Start Highest point End Pass type
(mag) Time Alt. Az. Time Alt. Az. Time Alt. Az.
17 Aug ? 20:12:27 14° S 20:16:07 86° W 20:20:21 10° N visible
18 Aug ? 20:20:02 10° SSW 20:24:07 60° W 20:28:19 10° N visible
19 Aug ? 20:28:14 10° SSW 20:32:14 42° W 20:36:16 10° NNW visible
20 Aug ? 19:00:35 10° SE 19:03:54 23° E 19:07:13 10° NNE visible
20 Aug ? 20:36:43 10° SW 20:40:26 30° W 20:44:12 10° NNW visible
21 Aug ? 19:08:17 10° SE 19:12:00 31° E 19:15:45 10° NNE visible
21 Aug ? 20:45:26 10° SW 20:48:45 22° W 20:52:06 10° NNW visible
22 Aug ? 19:16:13 10° SSE 19:20:12 44° E 19:24:13 10° NNE visible
22 Aug ? 20:54:29 10° WSW 20:57:10 16° WNW 20:59:51 10° NW visible
23 Aug ? 19:24:21 10° S 19:28:30 63° E 19:32:41 10° N visible
23 Aug ? 21:04:08 10° W 21:05:41 12° WNW 21:07:15 10° NW visible
24 Aug ? 19:32:41 10° S 19:36:54 90° NW 19:41:08 10° N visible
25 Aug ? 19:41:13 10° SSW 19:45:24 63° W 19:49:36 10° N visible
26 Aug ? 19:49:58 10° SSW 19:53:59 43° W 19:58:02 10° N visible
